Waseca, MN

12:49 AM CDT on August 29, 2016 (GMT -0500)
Waseca Municipal

Weather History for KACQ - September, 2012

Change the Weather History Date:

Thursday, September 20, 2012

  Actual Average Record
Temperature  
Mean Temperature 52 °F -  
Max Temperature 66 °F 70 °F 92 °F (1984)
Min Temperature 39 °F 47 °F 28 °F (1962)
Degree Days  
Heating Degree Days 12    
Growing Degree Days 2 (Base 50)    
Moisture  
Dew Point 30 °F    
Average Humidity 47    
Maximum Humidity 76    
Minimum Humidity 21    
Precipitation  
Precipitation 0.00 in - - ()
Sea Level Pressure  
Sea Level Pressure 29.93 in    
Wind  
Wind Speed 7 mph (West)    
Max Wind Speed 21 mph    
Max Gust Speed 36 mph    
Visibility 10 miles    
Events      
Averages and records for this station are not official NWS values.
T = Trace of Precipitation, MM = Missing Value Source: NWS Daily Summary

Daily Weather History Graph

Daily Weather History Graph

Search for Another Location

Airport or City:

Trip Planner

Search our weather history database for the weather conditions in past years. The results will help you decide how hot, cold, wet, or windy it might be!

Date:

Astronomy

Sep. 20, 2012 Rise Set
Actual Time 6:59 AM CDT 7:14 PM CDT
Civil Twilight 6:30 AM CDT 7:43 PM CDT
Nautical Twilight 5:56 AM CDT 8:17 PM CDT
Astronomical Twilight 5:21 AM CDT 8:51 PM CDT
Moon 12:31 PM CDT (9/20) 10:04 PM CDT (9/20)
Length of Visible Light 13h 12m
Length of Day
12h 14m
Waxing Crescent, 27% of the Moon is Illuminated
Sep 20
Waxing Crescent
Sep 22
First Quarter
Sep 29
Full
Oct 8
Last Quarter
Oct 15
New

Hourly Weather History & Observations

Time (CDT) Temp. Windchill Dew Point Humidity Pressure Visibility Wind Dir Wind Speed Gust Speed Precip Events Conditions
12:12 AM 44.6 °F 42.2 °F 33.8 °F 66% 29.90 in 10.0 mi SSW 4.6 mph - N/A   Clear
12:33 AM 44.6 °F 42.2 °F 35.6 °F 71% 29.90 in 10.0 mi SW 4.6 mph - N/A   Clear
12:52 AM 44.6 °F 42.2 °F 33.8 °F 66% 29.90 in 10.0 mi SW 4.6 mph - N/A   Clear
1:12 AM 44.6 °F 42.2 °F 33.8 °F 66% 29.90 in 10.0 mi WSW 4.6 mph - N/A   Clear
1:32 AM 44.6 °F 41.4 °F 33.8 °F 66% 29.91 in 10.0 mi WSW 5.8 mph - N/A   Clear
1:53 AM 44.6 °F 43.1 °F 33.8 °F 66% 29.91 in 10.0 mi WSW 3.5 mph - N/A   Clear
2:12 AM 44.6 °F 41.4 °F 33.8 °F 66% 29.91 in 10.0 mi WSW 5.8 mph - N/A   Clear
2:32 AM 42.8 °F 41.1 °F 32.0 °F 66% 29.91 in 10.0 mi SW 3.5 mph - N/A   Clear
2:53 AM 42.8 °F 40.1 °F 33.8 °F 70% 29.90 in 10.0 mi West 4.6 mph - N/A   Clear
3:12 AM 42.8 °F 38.6 °F 32.0 °F 66% 29.90 in 10.0 mi West 6.9 mph - N/A   Clear
3:33 AM 41.0 °F 37.1 °F 32.0 °F 70% 29.90 in 10.0 mi WSW 5.8 mph - N/A   Clear
3:53 AM 41.0 °F 38.0 °F 32.0 °F 70% 29.91 in 10.0 mi West 4.6 mph - N/A   Clear
4:12 AM 41.0 °F - 32.0 °F 70% 29.91 in 10.0 mi Calm Calm - N/A   Clear
4:33 AM 39.2 °F 37.0 °F 32.0 °F 75% 29.92 in 10.0 mi SW 3.5 mph - N/A   Clear
4:53 AM 41.0 °F 39.0 °F 32.0 °F 70% 29.92 in 10.0 mi SW 3.5 mph - N/A   Clear
5:12 AM 41.0 °F 39.0 °F 32.0 °F 70% 29.93 in 10.0 mi WSW 3.5 mph - N/A   Clear
5:33 AM 41.0 °F 39.0 °F 32.0 °F 70% 29.93 in 10.0 mi West 3.5 mph - N/A   Clear
5:53 AM 39.2 °F 35.9 °F 32.0 °F 75% 29.93 in 10.0 mi West 4.6 mph - N/A   Clear
6:12 AM 41.0 °F 38.0 °F 32.0 °F 70% 29.94 in 10.0 mi West 4.6 mph - N/A   Clear
6:32 AM 41.0 °F 38.0 °F 32.0 °F 70% 29.94 in 10.0 mi West 4.6 mph - N/A   Clear
6:53 AM 41.0 °F 38.0 °F 32.0 °F 70% 29.94 in 10.0 mi West 4.6 mph - N/A   Clear
7:13 AM 41.0 °F 37.1 °F 32.0 °F 70% 29.95 in 10.0 mi West 5.8 mph - N/A   Clear
7:32 AM 41.0 °F 38.0 °F 33.8 °F 76% 29.95 in 10.0 mi West 4.6 mph - N/A   Clear
7:52 AM 42.8 °F 40.1 °F 33.8 °F 70% 29.95 in 10.0 mi West 4.6 mph - N/A   Clear
8:13 AM 46.4 °F 41.9 °F 35.6 °F 66% 29.96 in 10.0 mi West 9.2 mph - N/A   Clear
8:33 AM 50.0 °F - 35.6 °F 58% 29.96 in 10.0 mi West 10.4 mph - N/A   Clear
8:52 AM 53.6 °F - 35.6 °F 51% 29.96 in 10.0 mi West 11.5 mph - N/A   Clear
9:13 AM 53.6 °F - 33.8 °F 47% 29.97 in 10.0 mi West 13.8 mph - N/A   Clear
9:33 AM 55.4 °F - 33.8 °F 44% 29.97 in 10.0 mi WNW 13.8 mph 21.9 mph N/A   Clear
9:53 AM 59.0 °F - 33.8 °F 39% 29.97 in 10.0 mi WNW 15.0 mph - N/A   Clear
10:13 AM 59.0 °F - 32.0 °F 36% 29.97 in 10.0 mi WNW 17.3 mph 21.9 mph N/A   Clear
10:32 AM 59.0 °F - 32.0 °F 36% 29.97 in 10.0 mi WNW 15.0 mph - N/A   Clear
10:52 AM 60.8 °F - 32.0 °F 34% 29.97 in 10.0 mi WNW 16.1 mph 23.0 mph N/A   Clear
11:13 AM 62.6 °F - 30.2 °F 30% 29.97 in 10.0 mi WNW 16.1 mph - N/A   Clear
11:33 AM 62.6 °F - 28.4 °F 27% 29.97 in 10.0 mi WNW 17.3 mph - N/A   Clear
11:53 AM 64.4 °F - 28.4 °F 26% 29.96 in 10.0 mi NW 19.6 mph 24.2 mph N/A   Clear
12:13 PM 64.4 °F - 28.4 °F 26% 29.96 in 10.0 mi WNW 18.4 mph 25.3 mph N/A   Clear
12:32 PM 64.4 °F - 28.4 °F 26% 29.96 in 10.0 mi NW 17.3 mph 26.5 mph N/A   Clear
12:53 PM 64.4 °F - 26.6 °F 24% 29.96 in 10.0 mi NW 17.3 mph 27.6 mph N/A   Scattered Clouds
1:13 PM 64.4 °F - 26.6 °F 24% 29.96 in 10.0 mi NW 18.4 mph 23.0 mph N/A   Scattered Clouds
1:32 PM 64.4 °F - 24.8 °F 22% 29.96 in 10.0 mi WNW 16.1 mph 26.5 mph N/A   Scattered Clouds
1:53 PM 64.4 °F - 24.8 °F 22% 29.96 in 10.0 mi NW 17.3 mph 31.1 mph N/A   Scattered Clouds
2:13 PM 66.2 °F - 24.8 °F 21% 29.95 in 10.0 mi NW 20.7 mph 35.7 mph N/A   Mostly Cloudy
2:32 PM 64.4 °F - 26.6 °F 24% 29.95 in 10.0 mi WNW 16.1 mph 20.7 mph N/A   Mostly Cloudy
2:53 PM 64.4 °F - 26.6 °F 24% 29.95 in 10.0 mi WNW 13.8 mph 20.7 mph N/A   Scattered Clouds
3:13 PM 64.4 °F - 23.0 °F 21% 29.94 in 10.0 mi WNW 13.8 mph 19.6 mph N/A   Scattered Clouds
3:33 PM 64.4 °F - 24.8 °F 22% 29.94 in 10.0 mi WNW 12.7 mph 21.9 mph N/A   Scattered Clouds
4:13 PM 64.4 °F - 23.0 °F 21% 29.93 in 10.0 mi NW 17.3 mph - N/A   Clear
4:33 PM 64.4 °F - 23.0 °F 21% 29.93 in 10.0 mi WNW 15.0 mph 19.6 mph N/A   Clear
4:53 PM 64.4 °F - 23.0 °F 21% 29.93 in 10.0 mi WNW 13.8 mph - N/A   Clear
5:13 PM 64.4 °F - 23.0 °F 21% 29.93 in 10.0 mi WNW 11.5 mph 16.1 mph N/A   Clear
5:33 PM 64.4 °F - 23.0 °F 21% 29.93 in 10.0 mi West 13.8 mph 17.3 mph N/A   Scattered Clouds
5:53 PM 64.4 °F - 24.8 °F 22% 29.93 in 10.0 mi West 9.2 mph - N/A   Clear
6:12 PM 64.4 °F - 26.6 °F 24% 29.93 in 10.0 mi West 8.1 mph - N/A   Clear
6:33 PM 62.6 °F - 24.8 °F 24% 29.93 in 10.0 mi WNW 6.9 mph - N/A   Clear
6:53 PM 60.8 °F - 26.6 °F 27% 29.93 in 10.0 mi West 6.9 mph - N/A   Clear
7:12 PM 59.0 °F - 26.6 °F 29% 29.93 in 10.0 mi West 5.8 mph - N/A   Clear
7:33 PM 55.4 °F - 28.4 °F 36% 29.93 in 10.0 mi WSW 3.5 mph - N/A   Clear
7:53 PM 53.6 °F - 28.4 °F 38% 29.92 in 10.0 mi Calm Calm - N/A   Clear
8:12 PM 53.6 °F - 30.2 °F 41% 29.93 in 10.0 mi Calm Calm - N/A   Clear
8:33 PM 53.6 °F - 30.2 °F 41% 29.93 in 10.0 mi Calm Calm - N/A   Clear
8:53 PM 53.6 °F - 37.4 °F 54% 29.93 in 10.0 mi Calm Calm - N/A   Clear
9:12 PM 51.8 °F - 33.8 °F 50% 29.94 in 10.0 mi Calm Calm - N/A   Clear
9:33 PM 46.4 °F - 32.0 °F 57% 29.93 in 10.0 mi Calm Calm - N/A   Scattered Clouds
9:53 PM 48.2 °F - 32.0 °F 54% 29.92 in 10.0 mi SSE 3.5 mph - N/A   Scattered Clouds
10:13 PM 51.8 °F - 32.0 °F 47% 29.92 in 10.0 mi Calm Calm - N/A   Scattered Clouds
10:32 PM 50.0 °F - 32.0 °F 50% 29.92 in 10.0 mi South 3.5 mph - N/A   Mostly Cloudy
10:53 PM 50.0 °F - 32.0 °F 50% 29.91 in 10.0 mi Calm Calm - N/A   Overcast
11:12 PM 51.8 °F - 33.8 °F 50% 29.91 in 10.0 mi South 4.6 mph - N/A   Overcast
11:32 PM 51.8 °F - 33.8 °F 50% 29.91 in 10.0 mi SSW 4.6 mph - N/A   Mostly Cloudy
11:53 PM 51.8 °F - 33.8 °F 50% 29.91 in 10.0 mi SSW 5.8 mph - N/A   Scattered Clouds